Ontario, OR

6:12 AM MDT on August 17, 2017 (GMT -0600)
Ontario Municipal

Weather History for KONO - May, 2013

Change the Weather History Date:

Saturday, May 11, 2013

  Actual Average Record
Temperature  
Mean Temperature 72 °F 58 °F  
Max Temperature 93 °F 73 °F 95 °F (1993)
Min Temperature 50 °F 43 °F 27 °F (1970)
Degree Days  
Heating Degree Days 0 8  
Month to date heating degree days 43 102  
Since 1 July heating degree days 5564 5843  
Cooling Degree Days 7 1  
Month to date cooling degree days 22 6  
Year to date cooling degree days 22 7  
Growing Degree Days 21 (Base 50)    
Moisture  
Dew Point 41 °F    
Average Humidity 40    
Maximum Humidity 66    
Minimum Humidity 13    
Precipitation  
Precipitation 0.00 in 0.04 in 0.68 in (1951)
Month to date precipitation T 0.41  
Year to date precipitation 1.41 4.20  
Sea Level Pressure  
Sea Level Pressure 30.11 in    
Wind  
Wind Speed 2 mph (WSW)    
Max Wind Speed 9 mph    
Max Gust Speed 13 mph    
Visibility 10 miles    
Events      
T = Trace of Precipitation, MM = Missing Value Source: NWS Daily Summary

Daily Weather History Graph

Daily Weather History Graph

Search for Another Location

Airport or City:

Trip Planner

Search our weather history database for the weather conditions in past years. The results will help you decide how hot, cold, wet, or windy it might be!

Date:

Astronomy

May. 11, 2013 Rise Set
Actual Time 6:26 AM MDT 9:03 PM MDT
Civil Twilight 5:53 AM MDT 9:36 PM MDT
Nautical Twilight 5:11 AM MDT 10:18 PM MDT
Astronomical Twilight 4:24 AM MDT 11:05 PM MDT
Moon 7:36 AM MDT (5/11) 10:48 PM MDT (5/11)
Length of Visible Light 15h 43m
Length of Day
14h 37m
Waxing Crescent, 3% of the Moon is Illuminated
May 11
Waxing Crescent
May 17
First Quarter
May 24
Full
May 31
Last Quarter
Jun 8
New

Hourly Weather History & Observations

Time (MDT) Temp. Dew Point Humidity Pressure Visibility Wind Dir Wind Speed Gust Speed Precip Events Conditions
12:53 AM 59.0 °F 43.0 °F 55% 30.13 in 10.0 mi Calm Calm - N/A   Clear
1:53 AM 57.0 °F 44.1 °F 62% 30.14 in 10.0 mi Calm Calm - N/A   Clear
2:53 AM 55.9 °F 43.0 °F 62% 30.14 in 10.0 mi West 3.5 mph - N/A   Clear
3:53 AM 54.0 °F 42.1 °F 64% 30.15 in 10.0 mi Calm Calm - N/A   Clear
4:53 AM 54.0 °F 39.0 °F 57% 30.16 in 10.0 mi West 4.6 mph - N/A   Clear
5:53 AM 51.1 °F 39.0 °F 63% 30.17 in 10.0 mi West 3.5 mph - N/A   Clear
6:53 AM 52.0 °F 39.9 °F 63% 30.17 in 10.0 mi Calm Calm - N/A   Clear
7:53 AM 54.0 °F 42.1 °F 64% 30.18 in 10.0 mi Calm Calm - N/A   Clear
8:53 AM 59.0 °F 42.1 °F 53% 30.19 in 10.0 mi Calm Calm - N/A   Clear
9:53 AM 64.9 °F 43.0 °F 45% 30.20 in 10.0 mi Calm Calm - N/A   Clear
10:53 AM 71.1 °F 43.0 °F 36% 30.19 in 10.0 mi Calm Calm - N/A   Clear
11:53 AM 77.0 °F 43.0 °F 30% 30.17 in 10.0 mi Variable 3.5 mph - N/A   Clear
12:53 PM 80.1 °F 45.0 °F 29% 30.15 in 10.0 mi SE 4.6 mph - N/A   Clear
1:53 PM 84.9 °F 43.0 °F 23% 30.12 in 10.0 mi SE 3.5 mph - N/A   Clear
2:53 PM 88.0 °F 37.0 °F 16% 30.09 in 10.0 mi Variable 4.6 mph - N/A   Clear
3:53 PM 90.0 °F 37.0 °F 15% 30.07 in 10.0 mi Variable 5.8 mph - N/A   Clear
4:53 PM 91.9 °F 33.1 °F 12% 30.04 in 10.0 mi Calm Calm - N/A   Clear
5:53 PM 90.0 °F 35.1 °F 14% 30.03 in 10.0 mi Variable 5.8 mph - N/A   Clear
6:53 PM 90.0 °F 36.0 °F 15% 30.02 in 10.0 mi NNE 6.9 mph - N/A   Clear
8:53 PM 82.9 °F 43.0 °F 24% 30.00 in 10.0 mi Calm Calm - N/A   Clear
9:53 PM 75.0 °F 46.0 °F 36% 30.02 in 10.0 mi Calm Calm - N/A   Clear
10:53 PM 69.1 °F 46.9 °F 45% 30.02 in 10.0 mi Calm Calm - N/A   Clear
11:53 PM 64.9 °F 48.0 °F 54% 30.02 in 10.0 mi West 3.5 mph - N/A   Clear